When you browse on this site, cookies collect data to enhance your experience and personalize the content and advertising you see.
Visit our Privacy Policy to learn more. By continuing to use the site, you agree to this use of cookies and data.
  • In Slovakia
  • List of Countries
  • For 7 days
  • Water Temperature
  • Weather Map
  • Weather Widgets
  • user-avatar
    Login

    Hourly Weather Asadabad

    Today, 22 September, Sunday

    Time Temperature Precipitation Wind Pressure Humidity
    00:00 +22°C° 0 mm 0 mps 657 mmHg 78%
    01:00 +21°C° 0 mm 0 mps 657 mmHg 79%
    02:00 +21°C° 0 mm 0 mps 657 mmHg 80%
    03:00 +21°C° 0 mm 0 mps 657 mmHg 79%
    04:00 +20°C° 0 mm 0 mps 657 mmHg 79%
    05:00 +20°C° 0 mm 0 mps 658 mmHg 83%
    06:00 +21°C° 0 mm 0 mps 658 mmHg 78%
    07:00 +22°C° 0 mm 0 mps 659 mmHg 73%
    08:00 +23°C° 0 mm 0 mps 660 mmHg 67%
    09:00 +26°C° 0.1 mm 1 mps 660 mmHg 63%
    10:00 +27°C° 0.1 mm 1 mps 660 mmHg 59%
    11:00 +28°C° 0 mm 2 mps 660 mmHg 54%
    12:00 +29°C° 0 mm 2 mps 660 mmHg 52%
    13:00 +30°C° 0 mm 2 mps 660 mmHg 49%
    14:00 +31°C° 0 mm 2 mps 659 mmHg 46%
    15:00 +30°C° 0 mm 2 mps 659 mmHg 46%
    16:00 +30°C° 0 mm 2 mps 659 mmHg 46%
    17:00 +30°C° 0 mm 2 mps 659 mmHg 45%
    18:00 +29°C° 0 mm 2 mps 659 mmHg 52%
    19:00 +28°C° 0 mm 1 mps 659 mmHg 59%
    20:00 +24°C° 0 mm 0 mps 659 mmHg 66%
    21:00 +24°C° 0 mm 0 mps 659 mmHg 68%
    22:00 +23°C° 0 mm 0 mps 659 mmHg 70%
    23:00 +23°C° 0 mm 0 mps 660 mmHg 72%

    Tomorrow, 23 September, Monday

    Time Temperature Precipitation Wind Pressure Humidity
    00:00 +22°C° 0 mm 0 mps 660 mmHg 73%
    01:00 +22°C° 0 mm 0 mps 660 mmHg 73%
    02:00 +22°C° 0 mm 0 mps 660 mmHg 74%
    03:00 +21°C° 0 mm 0 mps 660 mmHg 73%
    04:00 +21°C° 0 mm 0 mps 660 mmHg 72%
    05:00 +23°C° 0 mm 1 mps 660 mmHg 72%
    06:00 +22°C° 0 mm 0 mps 660 mmHg 66%
    07:00 +23°C° 0 mm 0 mps 661 mmHg 61%
    08:00 +24°C° 0 mm 0 mps 661 mmHg 56%
    09:00 +27°C° 0 mm 1 mps 661 mmHg 54%
    10:00 +28°C° 0 mm 1 mps 661 mmHg 52%
    11:00 +29°C° 0 mm 2 mps 661 mmHg 49%
    12:00 +30°C° 0 mm 2 mps 661 mmHg 47%
    13:00 +31°C° 0 mm 2 mps 661 mmHg 44%
    14:00 +31°C° 0 mm 3 mps 660 mmHg 41%
    15:00 +31°C° 0 mm 2 mps 660 mmHg 42%
    16:00 +31°C° 0 mm 2 mps 660 mmHg 42%
    17:00 +31°C° 0 mm 2 mps 659 mmHg 43%
    18:00 +29°C° 0 mm 2 mps 659 mmHg 50%
    19:00 +28°C° 0 mm 1 mps 659 mmHg 58%
    20:00 +24°C° 0 mm 0 mps 659 mmHg 65%
    21:00 +24°C° 0 mm 0 mps 659 mmHg 67%
    22:00 +23°C° 0 mm 0 mps 659 mmHg 69%
    23:00 +23°C° 0 mm 0 mps 659 mmHg 70%

    Day after tomorrow, 24 September, Tuesday

    Time Temperature Precipitation Wind Pressure Humidity
    00:00 +22°C° 0 mm 0 mps 659 mmHg 71%
    01:00 +22°C° 0 mm 0 mps 659 mmHg 72%
    02:00 +21°C° 0 mm 0 mps 659 mmHg 73%
    03:00 +21°C° 0 mm 0 mps 659 mmHg 74%
    04:00 +21°C° 0 mm 0 mps 659 mmHg 75%
    05:00 +23°C° 0 mm 1 mps 659 mmHg 77%
    06:00 +24°C° 0 mm 1 mps 659 mmHg 73%
    07:00 +25°C° 0 mm 1 mps 660 mmHg 69%
    08:00 +26°C° 0 mm 1 mps 661 mmHg 65%
    09:00 +27°C° 0 mm 1 mps 661 mmHg 60%
    10:00 +28°C° 0 mm 1 mps 661 mmHg 56%
    11:00 +29°C° 0 mm 2 mps 661 mmHg 52%
    12:00 +30°C° 0 mm 2 mps 661 mmHg 49%
    13:00 +30°C° 0 mm 2 mps 660 mmHg 46%
    14:00 +31°C° 0 mm 2 mps 660 mmHg 44%
    15:00 +31°C° 0 mm 2 mps 660 mmHg 44%
    16:00 +31°C° 0 mm 2 mps 659 mmHg 44%
    17:00 +31°C° 0 mm 2 mps 659 mmHg 44%
    18:00 +29°C° 0 mm 2 mps 659 mmHg 51%
    19:00 +28°C° 0 mm 1 mps 659 mmHg 58%
    20:00 +24°C° 0 mm 0 mps 659 mmHg 65%
    21:00 +24°C° 0 mm 0 mps 659 mmHg 67%
    22:00 +24°C° 0 mm 0 mps 659 mmHg 68%
    23:00 +23°C° 0 mm 0 mps 659 mmHg 70%

    25 September, Wednesday

    Time Temperature Precipitation Wind Pressure Humidity
    00:00 +23°C° 0 mm 0 mps 659 mmHg 70%
    01:00 +22°C° 0 mm 0 mps 659 mmHg 70%
    02:00 +22°C° 0 mm 0 mps 659 mmHg 71%
    03:00 +22°C° 0 mm 0 mps 659 mmHg 72%
    04:00 +21°C° 0 mm 0 mps 659 mmHg 72%
    05:00 +21°C° 0 mm 0 mps 659 mmHg 73%
    06:00 +24°C° 0 mm 1 mps 660 mmHg 70%
    07:00 +25°C° 0 mm 1 mps 661 mmHg 66%
    08:00 +26°C° 0 mm 1 mps 662 mmHg 63%
    09:00 +27°C° 0.1 mm 1 mps 662 mmHg 59%
    10:00 +28°C° 0.1 mm 2 mps 662 mmHg 56%
    11:00 +29°C° 0.1 mm 2 mps 663 mmHg 53%
    12:00 +30°C° 0 mm 2 mps 662 mmHg 50%
    13:00 +30°C° 0 mm 2 mps 662 mmHg 48%
    14:00 +31°C° 0 mm 2 mps 661 mmHg 46%
    15:00 +31°C° 0 mm 2 mps 661 mmHg 46%
    16:00 +31°C° 0 mm 2 mps 661 mmHg 46%
    17:00 +31°C° 0 mm 2 mps 661 mmHg 46%
    18:00 +29°C° 0 mm 1 mps 661 mmHg 52%
    19:00 +28°C° 0 mm 1 mps 661 mmHg 58%
    20:00 +25°C° 0 mm 0 mps 661 mmHg 65%
    21:00 +24°C° 0 mm 0 mps 661 mmHg 66%
    22:00 +24°C° 0 mm 0 mps 661 mmHg 68%
    23:00 +23°C° 0 mm 0 mps 661 mmHg 69%

    26 September, Thursday

    Time Temperature Precipitation Wind Pressure Humidity
    00:00 +23°C° 0 mm 0 mps 661 mmHg 69%
    01:00 +23°C° 0 mm 0 mps 661 mmHg 70%
    02:00 +24°C° 0 mm 1 mps 660 mmHg 70%
    03:00 +24°C° 0 mm 1 mps 660 mmHg 71%
    04:00 +24°C° 0 mm 1 mps 661 mmHg 71%
    05:00 +24°C° 0 mm 1 mps 661 mmHg 72%
    06:00 +25°C° 0 mm 1 mps 661 mmHg 68%
    07:00 +26°C° 0 mm 1 mps 662 mmHg 64%
    08:00 +25°C° 0 mm 0 mps 662 mmHg 60%
    09:00 +28°C° 0.1 mm 1 mps 663 mmHg 57%
    10:00 +29°C° 0.1 mm 1 mps 663 mmHg 54%
    11:00 +30°C° 0.1 mm 2 mps 663 mmHg 51%
    12:00 +30°C° 0 mm 2 mps 663 mmHg 49%
    13:00 +31°C° 0 mm 2 mps 662 mmHg 46%
    14:00 +31°C° 0 mm 3 mps 661 mmHg 44%
    15:00 +31°C° 0 mm 3 mps 661 mmHg 46%
    16:00 +31°C° 0 mm 2 mps 661 mmHg 48%
    17:00 +30°C° 0 mm 2 mps 660 mmHg 50%
    18:00 +29°C° 0 mm 2 mps 660 mmHg 56%
    19:00 +28°C° 0 mm 1 mps 660 mmHg 63%
    20:00 +26°C° 0 mm 1 mps 660 mmHg 70%
    21:00 +24°C° 0 mm 0 mps 660 mmHg 71%
    22:00 +24°C° 0 mm 0 mps 660 mmHg 73%
    23:00 +23°C° 0 mm 0 mps 660 mmHg 74%

    27 September, Friday

    Time Temperature Precipitation Wind Pressure Humidity
    00:00 +23°C° 0.1 mm 0 mps 660 mmHg 75%
    01:00 +24°C° 0.1 mm 1 mps 660 mmHg 75%
    02:00 +24°C° 0.1 mm 1 mps 660 mmHg 76%
    03:00 +24°C° 0.2 mm 1 mps 660 mmHg 76%
    04:00 +23°C° 0.2 mm 1 mps 660 mmHg 77%
    05:00 +23°C° 0.2 mm 1 mps 660 mmHg 77%
    06:00 +24°C° 0.1 mm 1 mps 660 mmHg 72%
    07:00 +23°C° 0.1 mm 0 mps 661 mmHg 68%
    08:00 +24°C° 0.1 mm 0 mps 661 mmHg 63%
    09:00 +27°C° 0.1 mm 1 mps 661 mmHg 61%
    10:00 +28°C° 0.1 mm 2 mps 661 mmHg 58%
    11:00 +29°C° 0.1 mm 2 mps 661 mmHg 56%
    12:00 +29°C° 0 mm 2 mps 661 mmHg 53%
    13:00 +30°C° 0 mm 2 mps 660 mmHg 51%
    14:00 +31°C° 0 mm 3 mps 660 mmHg 49%
    15:00 +30°C° 0.1 mm 2 mps 659 mmHg 50%
    16:00 +30°C° 0.1 mm 2 mps 659 mmHg 52%
    17:00 +30°C° 0.1 mm 2 mps 659 mmHg 54%
    18:00 +28°C° 0.1 mm 2 mps 659 mmHg 61%
    19:00 +27°C° 0.1 mm 1 mps 659 mmHg 68%
    20:00 +24°C° 0.1 mm 0 mps 658 mmHg 75%
    21:00 +23°C° 0.3 mm 0 mps 659 mmHg 75%
    22:00 +23°C° 0.3 mm 0 mps 659 mmHg 75%
    23:00 +25°C° 0.3 mm 1 mps 659 mmHg 75%
    Show more